| time (UTC) | temp F | wind direction | speed MPH | gust MPH | rain 1hr in | rain 24hr in | rain mn in | humidity % | barometer mb |
| 20260902053048 | 58 | 332 | 3.0 | 9.0 | 0.00 | 0.00 | 0.00 | 71 | 1017.1 |
| 20260902052530 | 58 | 344 | 3.0 | 10.0 | 0.00 | 0.00 | 0.00 | 71 | 1017.0 |
| 20260902052027 | 58 | 338 | 4.0 | 10.0 | 0.00 | 0.00 | 0.00 | 71 | 1017.2 |
| 20260902051543 | 58 | 328 | 3.0 | 8.0 | 0.00 | 0.00 | 0.00 | 71 | 1017.3 |
| 20260902051029 | 58 | 336 | 2.0 | 8.0 | 0.00 | 0.00 | 0.00 | 70 | 1017.3 |
| 20260902050530 | 58 | 342 | 2.0 | 5.0 | 0.00 | 0.00 | 0.00 | 70 | 1017.2 |
| 20260902050051 | 59 | 338 | 1.0 | 5.0 | 0.00 | 0.00 | 0.00 | 69 | 1017.2 |
| 20260902045526 | 59 | 328 | 2.0 | 5.0 | 0.00 | 0.00 | 0.00 | 68 | 1017.3 |
| 20260902045028 | 59 | 340 | 1.0 | 5.0 | 0.00 | 0.00 | 0.00 | 68 | 1017.2 |
| 20260902044550 | 59 | 331 | 1.0 | 5.0 | 0.00 | 0.00 | 0.00 | 67 | 1017.1 |
| 20260902044027 | 59 | 0 | 1.0 | 5.0 | 0.00 | 0.00 | 0.00 | 67 | 1017.1 |
| 20260902043526 | 59 | 13 | 2.0 | 5.0 | 0.00 | 0.00 | 0.00 | 66 | 1017.0 |
| 20260902043054 | 59 | 331 | 2.0 | 7.0 | 0.00 | 0.00 | 0.00 | 65 | 1017.0 |
| 20260902042527 | 60 | 24 | 3.0 | 7.0 | 0.00 | 0.00 | 0.00 | 65 | 1016.9 |
| 20260902042027 | 60 | 5 | 2.0 | 7.0 | 0.00 | 0.00 | 0.00 | 64 | 1017.0 |
| 20260902041557 | 60 | 5 | 3.0 | 7.0 | 0.00 | 0.00 | 0.00 | 64 | 1016.9 |
| 20260902041026 | 60 | 352 | 2.0 | 6.0 | 0.00 | 0.00 | 0.00 | 63 | 1016.7 |
| 20260902040526 | 60 | 350 | 3.0 | 6.0 | 0.00 | 0.00 | 0.00 | 63 | 1016.7 |
| 20260902040043 | 61 | 9 | 3.0 | 6.0 | 0.00 | 0.00 | 0.00 | 62 | 1016.6 |
| 20260902035526 | 61 | 350 | 2.0 | 6.0 | 0.00 | 0.00 | 0.00 | 62 | 1016.5 |
| 20260902035027 | 61 | 5 | 2.0 | 6.0 | 0.00 | 0.00 | 0.00 | 61 | 1016.3 |
| 20260902034553 | 61 | 9 | 3.0 | 8.0 | 0.00 | 0.00 | 0.00 | 61 | 1016.1 |
| 20260902034027 | 61 | 5 | 2.0 | 8.0 | 0.00 | 0.00 | 0.00 | 61 | 1016.1 |
| 20260902033529 | 61 | 342 | 2.0 | 8.0 | 0.00 | 0.00 | 0.00 | 60 | 1016.1 |
| 20260902033051 | 62 | 38 | 1.0 | 6.0 | 0.00 | 0.00 | 0.00 | 60 | 1016.0 |
| 20260902032531 | 62 | 40 | 2.0 | 11.0 | 0.00 | 0.00 | 0.00 | 60 | 1015.9 |
| 20260902032033 | 62 | 62 | 2.0 | 11.0 | 0.00 | 0.00 | 0.00 | 59 | 1015.9 |
| 20260902031542 | 62 | 29 | 2.0 | 9.0 | 0.00 | 0.00 | 0.00 | 59 | 1015.8 |
| 20260902031027 | 63 | 5 | 1.0 | 8.0 | 0.00 | 0.00 | 0.00 | 59 | 1015.6 |
| 20260902030530 | 63 | 52 | 2.0 | 8.0 | 0.00 | 0.00 | 0.00 | 58 | 1015.6 |
| 20260902030050 | 63 | 352 | 1.0 | 5.0 | 0.00 | 0.00 | 0.00 | 58 | 1015.5 |
| 20260902025532 | 63 | 295 | 1.0 | 5.0 | 0.00 | 0.00 | 0.00 | 57 | 1015.4 |
| 20260902025031 | 64 | 117 | 0.0 | 5.0 | 0.00 | 0.00 | 0.00 | 56 | 1015.4 |
| 20260902024549 | 64 | 0 | 1.0 | 7.0 | 0.00 | 0.00 | 0.00 | 55 | 1015.3 |
| 20260902024031 | 64 | 43 | 0.0 | 8.0 | 0.00 | 0.00 | 0.00 | 54 | 1015.3 |
| 20260902023531 | 64 | 32 | 1.0 | 8.0 | 0.00 | 0.00 | 0.00 | 53 | 1015.3 |
| 20260902023048 | 65 | 320 | 0.0 | 5.0 | 0.00 | 0.00 | 0.00 | 52 | 1015.4 |
| 20260902022531 | 65 | 49 | 0.0 | 7.0 | 0.00 | 0.00 | 0.00 | 52 | 1015.3 |
| 20260902022030 | 65 | 19 | 3.0 | 9.0 | 0.00 | 0.00 | 0.00 | 51 | 1015.4 |
| 20260902021553 | 65 | 28 | 4.0 | 9.0 | 0.00 | 0.00 | 0.00 | 50 | 1015.2 |
| 20260902021031 | 66 | 331 | 1.0 | 9.0 | 0.00 | 0.00 | 0.00 | 50 | 1015.2 |
| 20260902020531 | 66 | 36 | 1.0 | 9.0 | 0.00 | 0.00 | 0.00 | 49 | 1015.2 |
| 20260902020052 | 66 | 17 | 2.0 | 9.0 | 0.00 | 0.00 | 0.00 | 49 | 1015.2 |
| 20260902015530 | 67 | 325 | 3.0 | 9.0 | 0.00 | 0.00 | 0.00 | 48 | 1015.2 |
| 20260902015034 | 67 | 5 | 1.0 | 6.0 | 0.00 | 0.00 | 0.00 | 48 | 1015.1 |
| 20260902014550 | 67 | 344 | 3.0 | 8.0 | 0.00 | 0.00 | 0.00 | 47 | 1015.2 |
| 20260902014032 | 68 | 25 | 3.0 | 8.0 | 0.00 | 0.00 | 0.00 | 46 | 1015.2 |
| 20260902013534 | 68 | 346 | 2.0 | 8.0 | 0.00 | 0.00 | 0.00 | 46 | 1015.2 |
| 20260902013044 | 68 | 317 | 2.0 | 10.0 | 0.00 | 0.00 | 0.00 | 45 | 1015.1 |
| 20260902012531 | 68 | 11 | 4.0 | 12.0 | 0.00 | 0.00 | 0.00 | 44 | 1015.1 |
| 20260902012030 | 68 | 315 | 4.0 | 12.0 | 0.00 | 0.00 | 0.00 | 44 | 1015.1 |
| 20260902011551 | 68 | 348 | 4.0 | 11.0 | 0.00 | 0.00 | 0.00 | 44 | 1015.2 |
| 20260902011031 | 69 | 311 | 2.0 | 11.0 | 0.00 | 0.00 | 0.00 | 45 | 1015.2 |
| 20260902010529 | 69 | 5 | 4.0 | 11.0 | 0.00 | 0.00 | 0.00 | 44 | 1015.2 |
| 20260902010047 | 69 | 318 | 6.0 | 11.0 | 0.00 | 0.00 | 0.00 | 43 | 1015.2 |
| 20260902005528 | 69 | 329 | 4.0 | 11.0 | 0.00 | 0.00 | 0.00 | 43 | 1015.2 |
| 20260902005028 | 70 | 343 | 6.0 | 11.0 | 0.00 | 0.00 | 0.00 | 43 | 1015.2 |
| 20260902004548 | 70 | 59 | 2.0 | 9.0 | 0.00 | 0.00 | 0.00 | 44 | 1015.1 |
| 20260902004028 | 70 | 360 | 2.0 | 10.0 | 0.00 | 0.00 | 0.00 | 44 | 1015.2 |
| 20260902003531 | 70 | 352 | 2.0 | 12.0 | 0.00 | 0.00 | 0.00 | 44 | 1015.1 |
| 20260902003054 | 70 | 317 | 5.0 | 12.0 | 0.00 | 0.00 | 0.00 | 43 | 1015.2 |
| 20260902002534 | 70 | 352 | 6.0 | 12.0 | 0.00 | 0.00 | 0.00 | 43 | 1015.2 |
| 20260902002035 | 71 | 319 | 3.0 | 13.0 | 0.00 | 0.00 | 0.00 | 43 | 1015.3 |
| 20260902001552 | 71 | 50 | 6.0 | 13.0 | 0.00 | 0.00 | 0.00 | 43 | 1015.2 |
| 20260902001034 | 71 | 5 | 5.0 | 12.0 | 0.00 | 0.00 | 0.00 | 44 | 1015.2 |
| 20260902000616 | 71 | 352 | 4.0 | 11.0 | 0.00 | 0.00 | 0.00 | 42 | 1015.3 |
| 20260902000112 | 72 | 0 | 4.0 | 11.0 | 0.00 | 0.00 | 0.00 | 43 | 1015.2 |
| 20260901235532 | 71 | 346 | 6.0 | 11.0 | 0.00 | 0.00 | 0.00 | 43 | 1015.3 |
| 20260901235031 | 71 | 322 | 2.0 | 11.0 | 0.00 | 0.00 | 0.00 | 43 | 1015.3 |
| 20260901234547 | 71 | 207 | 5.0 | 11.0 | 0.00 | 0.00 | 0.00 | 42 | 1015.2 |
| 20260901234029 | 71 | 319 | 4.0 | 12.0 | 0.00 | 0.00 | 0.00 | 44 | 1015.3 |
| 20260901233532 | 72 | 5 | 6.0 | 12.0 | 0.00 | 0.00 | 0.00 | 43 | 1015.2 |
| 20260901233044 | 72 | 333 | 5.0 | 12.0 | 0.00 | 0.00 | 0.00 | 42 | 1015.3 |
| 20260901232531 | 72 | 344 | 4.0 | 13.0 | 0.00 | 0.00 | 0.00 | 43 | 1015.2 |
| 20260901232033 | 71 | 32 | 2.0 | 13.0 | 0.00 | 0.00 | 0.00 | 44 | 1015.2 |
| 20260901231555 | 71 | 360 | 5.0 | 13.0 | 0.00 | 0.00 | 0.00 | 43 | 1015.3 |
| 20260901231030 | 72 | 352 | 6.0 | 12.0 | 0.00 | 0.00 | 0.00 | 43 | 1015.5 |
| 20260901230529 | 72 | 347 | 3.0 | 12.0 | 0.00 | 0.00 | 0.00 | 43 | 1015.5 |
| 20260901230104 | 72 | 347 | 4.0 | 12.0 | 0.00 | 0.00 | 0.00 | 42 | 1015.4 |
| 20260901225532 | 72 | 323 | 5.0 | 11.0 | 0.00 | 0.00 | 0.00 | 44 | 1015.5 |
| 20260901225031 | 71 | 13 | 1.0 | 14.0 | 0.00 | 0.00 | 0.00 | 43 | 1015.5 |
| 20260901224549 | 72 | 349 | 7.0 | 14.0 | 0.00 | 0.00 | 0.00 | 44 | 1015.6 |
| 20260901224030 | 71 | 5 | 7.0 | 12.0 | 0.00 | 0.00 | 0.00 | 44 | 1015.5 |
| 20260901223532 | 72 | 9 | 7.0 | 12.0 | 0.00 | 0.00 | 0.00 | 44 | 1015.7 |
| 20260901223043 | 71 | 322 | 4.0 | 12.0 | 0.00 | 0.00 | 0.00 | 45 | 1015.6 |
| 20260901222531 | 72 | 350 | 8.0 | 14.0 | 0.00 | 0.00 | 0.00 | 44 | 1015.9 |
| 20260901222030 | 72 | 17 | 7.0 | 14.0 | 0.00 | 0.00 | 0.00 | 44 | 1015.9 |
| 20260901221551 | 71 | 24 | 4.0 | 12.0 | 0.00 | 0.00 | 0.00 | 46 | 1015.9 |
| 20260901221029 | 72 | 339 | 5.0 | 12.0 | 0.00 | 0.00 | 0.00 | 45 | 1016.0 |
| 20260901220531 | 71 | 331 | 3.0 | 11.0 | 0.00 | 0.00 | 0.00 | 46 | 1015.9 |
| 20260901220114 | 71 | 5 | 6.0 | 11.0 | 0.00 | 0.00 | 0.00 | 45 | 1015.9 |
| 20260901215528 | 71 | 329 | 4.0 | 16.0 | 0.00 | 0.00 | 0.00 | 46 | 1015.9 |
| 20260901215033 | 71 | 348 | 4.0 | 16.0 | 0.00 | 0.00 | 0.00 | 46 | 1016.1 |
| 20260901214545 | 72 | 339 | 7.0 | 14.0 | 0.00 | 0.00 | 0.00 | 45 | 1016.0 |
| 20260901214031 | 71 | 16 | 7.0 | 13.0 | 0.00 | 0.00 | 0.00 | 47 | 1015.9 |
| 20260901213532 | 71 | 26 | 2.0 | 12.0 | 0.00 | 0.00 | 0.00 | 48 | 1015.7 |
| 20260901213108 | 70 | 20 | 5.0 | 12.0 | 0.00 | 0.00 | 0.00 | 48 | 1015.9 |
| 20260901212530 | 70 | 360 | 4.0 | 12.0 | 0.00 | 0.00 | 0.00 | 49 | 1015.9 |
| 20260901212029 | 70 | 22 | 5.0 | 14.0 | 0.00 | 0.00 | 0.00 | 50 | 1016.0 |
| 20260901211553 | 70 | 352 | 6.0 | 14.0 | 0.00 | 0.00 | 0.00 | 49 | 1016.0 |
| 20260901211030 | 70 | 319 | 3.0 | 13.0 | 0.00 | 0.00 | 0.00 | 52 | 1016.1 |
| 20260901210529 | 69 | 317 | 3.0 | 13.0 | 0.00 | 0.00 | 0.00 | 53 | 1016.2 |
| 20260901210058 | 69 | 17 | 1.0 | 8.0 | 0.00 | 0.00 | 0.00 | 53 | 1016.1 |
| 20260901205531 | 68 | 44 | 1.0 | 8.0 | 0.00 | 0.00 | 0.00 | 56 | 1016.2 |
| 20260901205031 | 67 | 130 | 1.0 | 10.0 | 0.00 | 0.00 | 0.00 | 55 | 1016.2 |
| 20260901204544 | 68 | 127 | 2.0 | 10.0 | 0.00 | 0.00 | 0.00 | 55 | 1016.3 |
| 20260901204031 | 68 | 22 | 3.0 | 10.0 | 0.00 | 0.00 | 0.00 | 54 | 1016.3 |
| 20260901203531 | 67 | 68 | 4.0 | 13.0 | 0.00 | 0.00 | 0.00 | 54 | 1016.3 |
| 20260901203102 | 66 | 71 | 5.0 | 13.0 | 0.00 | 0.00 | 0.00 | 56 | 1016.4 |
| 20260901202531 | 66 | 360 | 2.0 | 10.0 | 0.00 | 0.00 | 0.00 | 58 | 1016.6 |
| 20260901202032 | 67 | 57 | 3.0 | 12.0 | 0.00 | 0.00 | 0.00 | 55 | 1016.5 |
| 20260901201547 | 67 | 352 | 4.0 | 14.0 | 0.00 | 0.00 | 0.00 | 54 | 1016.5 |
| 20260901201031 | 67 | 17 | 3.0 | 14.0 | 0.00 | 0.00 | 0.00 | 54 | 1016.4 |
| 20260901200535 | 67 | 317 | 3.0 | 11.0 | 0.00 | 0.00 | 0.00 | 56 | 1016.3 |
| 20260901200047 | 68 | 24 | 4.0 | 11.0 | 0.00 | 0.00 | 0.00 | 57 | 1016.4 |
| 20260901195530 | 66 | 319 | 3.0 | 11.0 | 0.00 | 0.00 | 0.00 | 57 | 1016.5 |
| 20260901195029 | 65 | 5 | 2.0 | 11.0 | 0.00 | 0.00 | 0.00 | 58 | 1016.6 |
| 20260901194549 | 65 | 360 | 5.0 | 12.0 | 0.00 | 0.00 | 0.00 | 59 | 1016.6 |
| 20260901194030 | 64 | 330 | 4.0 | 12.0 | 0.00 | 0.00 | 0.00 | 59 | 1016.5 |
| 20260901193531 | 65 | 22 | 6.0 | 11.0 | 0.00 | 0.00 | 0.00 | 58 | 1016.6 |
| 20260901193106 | 65 | 314 | 2.0 | 11.0 | 0.00 | 0.00 | 0.00 | 59 | 1016.5 |
| 20260901192530 | 65 | 342 | 6.0 | 11.0 | 0.00 | 0.00 | 0.00 | 59 | 1016.6 |
| 20260901192030 | 64 | 324 | 0.0 | 10.0 | 0.00 | 0.00 | 0.00 | 61 | 1016.6 |
| 20260901191549 | 64 | 33 | 4.0 | 11.0 | 0.00 | 0.00 | 0.00 | 61 | 1016.7 |
| 20260901191030 | 64 | 349 | 5.0 | 11.0 | 0.00 | 0.00 | 0.00 | 61 | 1016.7 |
| 20260901190531 | 64 | 5 | 6.0 | 11.0 | 0.00 | 0.00 | 0.00 | 60 | 1016.7 |
| 20260901190051 | 64 | 24 | 5.0 | 10.0 | 0.00 | 0.00 | 0.00 | 61 | 1016.8 |
| 20260901185531 | 64 | 22 | 3.0 | 12.0 | 0.00 | 0.00 | 0.00 | 62 | 1016.8 |
| 20260901185027 | 64 | 331 | 6.0 | 12.0 | 0.00 | 0.00 | 0.00 | 61 | 1016.9 |
| 20260901184547 | 63 | 342 | 3.0 | 13.0 | 0.00 | 0.00 | 0.00 | 63 | 1016.8 |
| 20260901184028 | 63 | 26 | 2.0 | 13.0 | 0.00 | 0.00 | 0.00 | 63 | 1016.9 |
| 20260901183531 | 63 | 325 | 5.0 | 13.0 | 0.00 | 0.00 | 0.00 | 62 | 1016.9 |
| 20260901183058 | 63 | 352 | 3.0 | 14.0 | 0.00 | 0.00 | 0.00 | 62 | 1016.9 |
| 20260901182531 | 63 | 321 | 4.0 | 14.0 | 0.00 | 0.00 | 0.00 | 61 | 1016.9 |
| 20260901182032 | 63 | 339 | 3.0 | 14.0 | 0.00 | 0.00 | 0.00 | 63 | 1016.8 |
| 20260901181551 | 63 | 298 | 4.0 | 14.0 | 0.00 | 0.00 | 0.00 | 62 | 1016.7 |
| 20260901181033 | 63 | 212 | 2.0 | 11.0 | 0.00 | 0.00 | 0.00 | 64 | 1016.6 |
| 20260901180530 | 63 | 322 | 2.0 | 11.0 | 0.00 | 0.00 | 0.00 | 64 | 1016.6 |
| 20260901180050 | 62 | 290 | 2.0 | 11.0 | 0.00 | 0.00 | 0.00 | 64 | 1016.7 |
| 20260901175529 | 62 | 189 | 3.0 | 11.0 | 0.00 | 0.00 | 0.00 | 67 | 1016.6 |
| 20260901175031 | 61 | 343 | 1.0 | 11.0 | 0.00 | 0.00 | 0.00 | 67 | 1016.6 |
| 20260901174544 | 61 | 322 | 5.0 | 11.0 | 0.00 | 0.00 | 0.00 | 67 | 1016.5 |
| 20260901174118 | 60 | 352 | 3.0 | 11.0 | 0.00 | 0.00 | 0.00 | 69 | 1016.6 |
| 20260901173533 | 60 | 10 | 2.0 | 11.0 | 0.00 | 0.00 | 0.00 | 69 | 1016.8 |
| 20260901173053 | 59 | 254 | 4.0 | 10.0 | 0.00 | 0.00 | 0.00 | 71 | 1016.8 |
| 20260901172532 | 58 | 296 | 2.0 | 10.0 | 0.00 | 0.00 | 0.00 | 73 | 1016.7 |
| 20260901172030 | 58 | 350 | 2.0 | 10.0 | 0.00 | 0.00 | 0.00 | 73 | 1016.6 |
| 20260901171557 | 58 | 330 | 4.0 | 8.0 | 0.00 | 0.00 | 0.00 | 73 | 1016.5 |
| 20260901171031 | 58 | 326 | 3.0 | 9.0 | 0.00 | 0.00 | 0.00 | 73 | 1016.5 |
| 20260901170531 | 58 | 9 | 3.0 | 9.0 | 0.00 | 0.00 | 0.00 | 74 | 1016.5 |
| 20260901170101 | 58 | 329 | 3.0 | 11.0 | 0.00 | 0.00 | 0.00 | 74 | 1016.5 |
| 20260901165530 | 57 | 325 | 5.0 | 11.0 | 0.00 | 0.00 | 0.00 | 74 | 1016.5 |
| 20260901165032 | 57 | 29 | 4.0 | 10.0 | 0.00 | 0.00 | 0.00 | 74 | 1016.5 |
| 20260901164548 | 57 | 345 | 4.0 | 8.0 | 0.00 | 0.00 | 0.00 | 75 | 1016.5 |
| 20260901164032 | 57 | 26 | 0.0 | 11.0 | 0.00 | 0.00 | 0.00 | 75 | 1016.3 |
| 20260901163532 | 57 | 0 | 5.0 | 11.0 | 0.00 | 0.00 | 0.00 | 75 | 1016.3 |
| 20260901163053 | 57 | 323 | 2.0 | 9.0 | 0.00 | 0.00 | 0.00 | 75 | 1016.3 |
| 20260901162529 | 57 | 352 | 4.0 | 11.0 | 0.00 | 0.00 | 0.00 | 75 | 1016.3 |
| 20260901162030 | 56 | 345 | 3.0 | 11.0 | 0.00 | 0.00 | 0.00 | 76 | 1016.2 |
| 20260901161552 | 57 | 342 | 1.0 | 6.0 | 0.00 | 0.00 | 0.00 | 77 | 1016.2 |
| 20260901161032 | 56 | 0 | 1.0 | 8.0 | 0.00 | 0.00 | 0.00 | 78 | 1016.1 |
| 20260901160530 | 56 | 360 | 0.0 | 8.0 | 0.00 | 0.00 | 0.00 | 78 | 1016.0 |
| 20260901160056 | 56 | 290 | 1.0 | 11.0 | 0.00 | 0.00 | 0.00 | 78 | 1015.9 |
| 20260901155530 | 55 | 78 | 2.0 | 14.0 | 0.00 | 0.00 | 0.00 | 79 | 1015.9 |
| 20260901155032 | 55 | 284 | 2.0 | 14.0 | 0.00 | 0.00 | 0.00 | 79 | 1015.9 |
| 20260901154550 | 55 | 335 | 6.0 | 14.0 | 0.00 | 0.00 | 0.00 | 79 | 1015.7 |
| 20260901154031 | 55 | 325 | 7.0 | 14.0 | 0.00 | 0.00 | 0.00 | 79 | 1015.6 |
| 20260901153531 | 55 | 292 | 1.0 | 12.0 | 0.00 | 0.00 | 0.00 | 80 | 1015.5 |
| 20260901153046 | 55 | 236 | 2.0 | 12.0 | 0.00 | 0.00 | 0.00 | 80 | 1015.5 |
| 20260901152530 | 55 | 291 | 3.0 | 9.0 | 0.00 | 0.00 | 0.00 | 81 | 1015.5 |
| 20260901152029 | 54 | 234 | 2.0 | 13.0 | 0.00 | 0.00 | 0.00 | 82 | 1015.5 |
| 20260901151543 | 54 | 326 | 4.0 | 13.0 | 0.00 | 0.00 | 0.00 | 82 | 1015.4 |
| 20260901151030 | 54 | 344 | 3.0 | 9.0 | 0.00 | 0.00 | 0.00 | 84 | 1015.4 |
| 20260901150529 | 54 | 292 | 2.0 | 15.0 | 0.00 | 0.00 | 0.00 | 84 | 1015.4 |
| 20260901150049 | 54 | 278 | 3.0 | 15.0 | 0.00 | 0.00 | 0.00 | 84 | 1015.2 |
| 20260901145531 | 54 | 343 | 3.0 | 11.0 | 0.00 | 0.00 | 0.00 | 84 | 1015.1 |
| 20260901145030 | 54 | 344 | 2.0 | 11.0 | 0.00 | 0.00 | 0.00 | 85 | 1015.0 |
| 20260901144548 | 54 | 306 | 3.0 | 15.0 | 0.00 | 0.00 | 0.00 | 85 | 1015.0 |
| 20260901144030 | 54 | 306 | 5.0 | 15.0 | 0.00 | 0.00 | 0.00 | 85 | 1014.9 |
| 20260901143528 | 54 | 9 | 2.0 | 13.0 | 0.00 | 0.00 | 0.00 | 85 | 1014.9 |
| 20260901143049 | 54 | 327 | 4.0 | 13.0 | 0.00 | 0.00 | 0.00 | 85 | 1014.7 |
| 20260901142528 | 54 | 292 | 2.0 | 11.0 | 0.00 | 0.00 | 0.00 | 85 | 1014.6 |
| 20260901142032 | 54 | 340 | 1.0 | 11.0 | 0.00 | 0.00 | 0.00 | 86 | 1014.5 |
| 20260901141550 | 54 | 322 | 3.0 | 12.0 | 0.00 | 0.00 | 0.00 | 86 | 1014.4 |
| 20260901141032 | 54 | 69 | 2.0 | 12.0 | 0.00 | 0.00 | 0.00 | 86 | 1014.4 |
| 20260901140528 | 54 | 300 | 4.0 | 12.0 | 0.00 | 0.00 | 0.00 | 86 | 1014.4 |
| 20260901140055 | 54 | 323 | 2.0 | 11.0 | 0.00 | 0.00 | 0.00 | 86 | 1014.5 |
| 20260901135528 | 53 | 330 | 3.0 | 11.0 | 0.00 | 0.00 | 0.00 | 86 | 1014.5 |
| 20260901135029 | 53 | 332 | 3.0 | 10.0 | 0.00 | 0.00 | 0.00 | 86 | 1014.4 |
| 20260901134608 | 53 | 338 | 1.0 | 8.0 | 0.00 | 0.00 | 0.00 | 86 | 1014.3 |
| 20260901134031 | 53 | 348 | 1.0 | 12.0 | 0.00 | 0.00 | 0.00 | 86 | 1014.2 |
| 20260901133530 | 53 | 292 | 2.0 | 12.0 | 0.00 | 0.00 | 0.00 | 86 | 1014.1 |
| 20260901133054 | 53 | 192 | 2.0 | 8.0 | 0.00 | 0.00 | 0.00 | 86 | 1014.1 |
| 20260901132531 | 53 | 296 | 0.0 | 4.0 | 0.00 | 0.00 | 0.00 | 87 | 1014.0 |
| 20260901132032 | 53 | 294 | 0.0 | 8.0 | 0.00 | 0.00 | 0.00 | 87 | 1014.0 |
| 20260901131558 | 53 | 0 | 2.0 | 8.0 | 0.00 | 0.00 | 0.00 | 87 | 1014.0 |
| 20260901131032 | 53 | 279 | 1.0 | 4.0 | 0.00 | 0.00 | 0.00 | 87 | 1014.0 |
| 20260901130530 | 53 | 302 | 1.0 | 4.0 | 0.00 | 0.00 | 0.00 | 87 | 1014.1 |
| 20260901130056 | 53 | 225 | 1.0 | 3.0 | 0.00 | 0.00 | 0.00 | 87 | 1014.0 |
| 20260901125531 | 53 | 0 | 0.0 | 3.0 | 0.00 | 0.00 | 0.00 | 87 | 1014.1 |
| 20260901125028 | 53 | 0 | 0.0 | 9.0 | 0.00 | 0.00 | 0.00 | 87 | 1014.1 |
| 20260901124550 | 53 | 251 | 1.0 | 9.0 | 0.00 | 0.00 | 0.00 | 87 | 1014.0 |
| 20260901124030 | 53 | 287 | 1.0 | 4.0 | 0.00 | 0.00 | 0.00 | 87 | 1014.2 |
| 20260901123530 | 53 | 323 | 1.0 | 4.0 | 0.00 | 0.00 | 0.00 | 88 | 1014.3 |
| 20260901123050 | 53 | 296 | 0.0 | 10.0 | 0.00 | 0.00 | 0.00 | 88 | 1014.3 |
| 20260901122530 | 53 | 0 | 0.0 | 10.0 | 0.00 | 0.00 | 0.00 | 88 | 1014.3 |
| 20260901122031 | 53 | 330 | 3.0 | 10.0 | 0.00 | 0.00 | 0.00 | 88 | 1014.3 |
| 20260901121548 | 53 | 327 | 2.0 | 9.0 | 0.00 | 0.00 | 0.00 | 89 | 1014.2 |
| 20260901121028 | 52 | 0 | 2.0 | 11.0 | 0.00 | 0.00 | 0.00 | 89 | 1014.2 |
| 20260901120532 | 52 | 0 | 2.0 | 11.0 | 0.00 | 0.00 | 0.00 | 89 | 1014.0 |
| 20260901120057 | 52 | 318 | 2.0 | 9.0 | 0.00 | 0.00 | 0.00 | 89 | 1014.0 |
| 20260901115531 | 52 | 325 | 2.0 | 9.0 | 0.00 | 0.00 | 0.00 | 89 | 1013.9 |
| 20260901115032 | 52 | 331 | 2.0 | 10.0 | 0.00 | 0.00 | 0.00 | 89 | 1014.0 |
| 20260901114554 | 52 | 335 | 2.0 | 10.0 | 0.00 | 0.00 | 0.00 | 89 | 1013.9 |
| 20260901114029 | 52 | 5 | 3.0 | 10.0 | 0.00 | 0.00 | 0.00 | 90 | 1013.9 |
| 20260901113530 | 52 | 333 | 3.0 | 10.0 | 0.00 | 0.00 | 0.00 | 90 | 1013.8 |
| 20260901113050 | 52 | 346 | 1.0 | 10.0 | 0.00 | 0.00 | 0.00 | 90 | 1013.8 |
| 20260901112532 | 52 | 321 | 1.0 | 8.0 | 0.00 | 0.00 | 0.00 | 90 | 1013.6 |
| 20260901112028 | 52 | 347 | 2.0 | 10.0 | 0.00 | 0.00 | 0.00 | 90 | 1013.6 |
| 20260901111610 | 52 | 327 | 2.0 | 10.0 | 0.00 | 0.00 | 0.00 | 90 | 1013.6 |
| 20260901111030 | 52 | 352 | 2.0 | 13.0 | 0.00 | 0.00 | 0.00 | 89 | 1013.6 |
| 20260901110530 | 52 | 39 | 3.0 | 13.0 | 0.00 | 0.00 | 0.00 | 89 | 1013.7 |
| 20260901110049 | 52 | 325 | 3.0 | 8.0 | 0.00 | 0.00 | 0.00 | 89 | 1013.6 |
| 20260901105532 | 52 | 13 | 2.0 | 6.0 | 0.00 | 0.00 | 0.00 | 89 | 1013.6 |
| 20260901105032 | 52 | 317 | 1.0 | 10.0 | 0.00 | 0.00 | 0.00 | 89 | 1013.4 |
| 20260901104542 | 52 | 330 | 3.0 | 10.0 | 0.00 | 0.00 | 0.00 | 89 | 1013.3 |
| 20260901104034 | 52 | 340 | 0.0 | 9.0 | 0.00 | 0.00 | 0.00 | 88 | 1013.4 |
| 20260901103533 | 52 | 352 | 3.0 | 9.0 | 0.00 | 0.00 | 0.00 | 88 | 1013.3 |
| 20260901103050 | 52 | 0 | 2.0 | 9.0 | 0.00 | 0.00 | 0.00 | 88 | 1013.4 |
| 20260901102531 | 52 | 349 | 2.0 | 9.0 | 0.00 | 0.00 | 0.00 | 88 | 1013.4 |
| 20260901102033 | 52 | 262 | 2.0 | 6.0 | 0.00 | 0.00 | 0.00 | 88 | 1013.2 |
| 20260901101547 | 52 | 303 | 1.0 | 8.0 | 0.00 | 0.00 | 0.00 | 87 | 1013.2 |
| 20260901101031 | 52 | 286 | 1.0 | 8.0 | 0.00 | 0.00 | 0.00 | 87 | 1013.2 |
| 20260901100527 | 52 | 311 | 0.0 | 8.0 | 0.00 | 0.00 | 0.00 | 87 | 1013.3 |
| 20260901100053 | 52 | 317 | 0.0 | 8.0 | 0.00 | 0.00 | 0.00 | 87 | 1013.4 |
| 20260901095530 | 52 | 342 | 1.0 | 9.0 | 0.00 | 0.00 | 0.00 | 87 | 1013.4 |
| 20260901095030 | 53 | 271 | 1.0 | 9.0 | 0.00 | 0.00 | 0.00 | 87 | 1013.4 |
| 20260901094550 | 53 | 222 | 1.0 | 8.0 | 0.00 | 0.00 | 0.00 | 86 | 1013.5 |
| 20260901094033 | 53 | 292 | 1.0 | 8.0 | 0.00 | 0.00 | 0.00 | 86 | 1013.5 |
| 20260901093537 | 53 | 334 | 1.0 | 8.0 | 0.00 | 0.00 | 0.00 | 86 | 1013.5 |
| 20260901093045 | 53 | 332 | 1.0 | 8.0 | 0.00 | 0.00 | 0.00 | 86 | 1013.5 |
| 20260901092529 | 53 | 257 | 1.0 | 10.0 | 0.00 | 0.00 | 0.00 | 85 | 1013.5 |
| 20260901092030 | 53 | 327 | 2.0 | 10.0 | 0.00 | 0.00 | 0.00 | 85 | 1013.5 |
| 20260901091550 | 53 | 281 | 2.0 | 10.0 | 0.00 | 0.00 | 0.00 | 85 | 1013.6 |
| 20260901091030 | 53 | 242 | 3.0 | 9.0 | 0.00 | 0.00 | 0.00 | 85 | 1013.5 |
| 20260901090530 | 53 | 252 | 3.0 | 9.0 | 0.00 | 0.00 | 0.00 | 85 | 1013.5 |
| 20260901090049 | 53 | 343 | 2.0 | 9.0 | 0.00 | 0.00 | 0.00 | 84 | 1013.5 |
| 20260901085529 | 53 | 252 | 1.0 | 9.0 | 0.00 | 0.00 | 0.00 | 84 | 1013.6 |
| 20260901085028 | 53 | 298 | 1.0 | 8.0 | 0.00 | 0.00 | 0.00 | 84 | 1013.7 |
| 20260901084542 | 54 | 0 | 0.0 | 5.0 | 0.00 | 0.00 | 0.00 | 84 | 1013.8 |
| 20260901084028 | 54 | 0 | 1.0 | 5.0 | 0.00 | 0.00 | 0.00 | 84 | 1013.8 |
| 20260901083530 | 54 | 288 | 0.0 | 6.0 | 0.00 | 0.00 | 0.00 | 84 | 1013.7 |
| 20260901083046 | 54 | 319 | 1.0 | 6.0 | 0.00 | 0.00 | 0.00 | 84 | 1013.8 |
| 20260901082531 | 54 | 0 | 1.0 | 5.0 | 0.00 | 0.00 | 0.00 | 84 | 1013.6 |
| 20260901082028 | 54 | 0 | 0.0 | 3.0 | 0.00 | 0.00 | 0.00 | 83 | 1013.5 |
| 20260901081558 | 54 | 290 | 1.0 | 4.0 | 0.00 | 0.00 | 0.00 | 83 | 1013.6 |
| 20260901081029 | 54 | 0 | 1.0 | 6.0 | 0.00 | 0.00 | 0.00 | 83 | 1013.7 |
| 20260901080528 | 54 | 352 | 1.0 | 6.0 | 0.00 | 0.00 | 0.00 | 83 | 1013.8 |
| 20260901080049 | 54 | 224 | 0.0 | 4.0 | 0.00 | 0.00 | 0.00 | 83 | 1013.8 |
| 20260901075530 | 54 | 286 | 1.0 | 6.0 | 0.00 | 0.00 | 0.00 | 83 | 1013.7 |
| 20260901075032 | 54 | 329 | 2.0 | 6.0 | 0.00 | 0.00 | 0.00 | 83 | 1013.7 |
| 20260901074600 | 54 | 332 | 1.0 | 6.0 | 0.00 | 0.00 | 0.00 | 84 | 1013.7 |
| 20260901074030 | 54 | 0 | 2.0 | 11.0 | 0.00 | 0.00 | 0.00 | 84 | 1013.8 |
| 20260901073530 | 54 | 334 | 3.0 | 11.0 | 0.00 | 0.00 | 0.00 | 84 | 1013.9 |
| 20260901073054 | 54 | 315 | 1.0 | 13.0 | 0.00 | 0.00 | 0.00 | 83 | 1013.9 |
| 20260901072529 | 55 | 19 | 4.0 | 13.0 | 0.00 | 0.00 | 0.00 | 83 | 1013.9 |
| 20260901072030 | 55 | 360 | 3.0 | 13.0 | 0.00 | 0.00 | 0.00 | 82 | 1013.8 |
| 20260901071550 | 55 | 317 | 3.0 | 14.0 | 0.00 | 0.00 | 0.00 | 82 | 1013.7 |
| 20260901071032 | 55 | 331 | 6.0 | 14.0 | 0.00 | 0.00 | 0.00 | 81 | 1013.6 |
| 20260901070528 | 55 | 330 | 6.0 | 13.0 | 0.00 | 0.00 | 0.00 | 80 | 1013.6 |
| 20260901070054 | 56 | 330 | 2.0 | 10.0 | 0.00 | 0.00 | 0.00 | 80 | 1013.6 |
| 20260901065530 | 56 | 322 | 3.0 | 11.0 | 0.00 | 0.00 | 0.00 | 80 | 1013.5 |
| 20260901065030 | 56 | 300 | 2.0 | 11.0 | 0.00 | 0.00 | 0.00 | 80 | 1013.4 |
| 20260901064550 | 56 | 329 | 1.0 | 10.0 | 0.00 | 0.00 | 0.00 | 79 | 1013.4 |
| 20260901064030 | 56 | 327 | 2.0 | 12.0 | 0.00 | 0.00 | 0.00 | 79 | 1013.4 |
| 20260901063530 | 56 | 327 | 1.0 | 12.0 | 0.00 | 0.00 | 0.00 | 78 | 1013.3 |
| 20260901063048 | 57 | 281 | 6.0 | 12.0 | 0.00 | 0.00 | 0.00 | 78 | 1013.3 |
| 20260901062529 | 57 | 329 | 2.0 | 10.0 | 0.00 | 0.00 | 0.00 | 77 | 1013.3 |
| 20260901062030 | 57 | 119 | 2.0 | 11.0 | 0.00 | 0.00 | 0.00 | 77 | 1013.2 |
| 20260901061546 | 57 | 323 | 3.0 | 11.0 | 0.00 | 0.00 | 0.00 | 77 | 1013.2 |
| 20260901061030 | 57 | 259 | 3.0 | 11.0 | 0.00 | 0.00 | 0.00 | 76 | 1013.2 |
| 20260901060530 | 57 | 342 | 2.0 | 10.0 | 0.00 | 0.00 | 0.00 | 75 | 1013.2 |
| 20260901060058 | 58 | 317 | 1.0 | 6.0 | 0.00 | 0.00 | 0.00 | 74 | 1013.2 |
| 20260901055528 | 58 | 0 | 1.0 | 11.0 | 0.00 | 0.00 | 0.00 | 75 | 1013.2 |
| 20260901055030 | 58 | 315 | 2.0 | 11.0 | 0.00 | 0.00 | 0.00 | 74 | 1013.1 |
| 20260901054549 | 58 | 298 | 2.0 | 11.0 | 0.00 | 0.00 | 0.00 | 75 | 1013.2 |
| 20260901054030 | 58 | 0 | 2.0 | 9.0 | 0.00 | 0.00 | 0.00 | 75 | 1013.2 |
| 20260901053530 | 58 | 267 | 1.0 | 10.0 | 0.00 | 0.00 | 0.00 | 74 | 1013.1 |